Regional Weather Roundup
Issued by NWS

Home | Current Version | Previous Version | Text Only | Print | Product List | Glossary Off
Versions: 1 2 3 4 5 6 7 8 9 10 11 12 13 14 15 16 17 18 19 20 21 22 23 24 25 26 27 28 29 30 31 32 33 34 35 36 37 38 39 40 41 42 43 44 45 46 47 48 49 50

000
ASUS43 KFSD 270910
RWRSD

WEATHER ROUNDUP FOR SOUTH DAKOTA
NATIONAL WEATHER SERVICE SIOUX FALLS SD
300 AM CST FRI FEB 27 2015

NOTE: "FAIR" INDICATES FEW OR NO CLOUDS BELOW 12,000 FEET WITH NO
SIGNIFICANT WEATHER AND/OR OBSTRUCTIONS TO VISIBILITY.


SDZ001>005-009-010-012>017-271000-
NORTHWEST AND NORTH CENTRAL SOUTH DAKOTA

CITY           SKY/WX    TMP DP  RH WIND       PRES   REMARKS
BUFFALO          N/A     -4 -11  72 SE5       30.20F WCI -15
FAITH            N/A     -2  -9  72 S10       30.36F WCI -19
MOBRIDGE       CLEAR    -11 -16  78 CALM      30.43F
$$

SDZ012>016-024>037-041>051-057-063-072>074-271000-
SOUTHWEST AND SOUTH CENTRAL SOUTH DAKOTA

CITY           SKY/WX    TMP DP  RH WIND       PRES   REMARKS
RAPID CTY ARPT PTCLDY    -4  -9  79 SE5       30.30F WCI -15
PIERRE         CLEAR     -2  -7  79 SW5       30.48F WCI -12
CUSTER         CLEAR    -13 -18  78 W5        30.06F WCI -25
ELLSWORTH AFB  PTCLDY    -3 -10  70 S6        30.28F WCI -15
PHILIP         CLEAR     -9 -14  78 W5        30.43F WCI -20
PINE RIDGE     CLEAR     -6 -11  79 NE3       30.32F
WINNER         FAIR       1  -9  62 SW7       30.47F WCI -12
$$

SDZ004>011-016>023-039-040-271000-
NORTHEAST SOUTH DAKOTA

CITY           SKY/WX    TMP DP  RH WIND       PRES   REMARKS
ABERDEEN       CLEAR    -15 -20  78 W6        30.51S WCI -29
WATERTOWN      PTCLDY   -11 -16  78 S6        30.45S WCI -25
SISSETON         N/A     -7 -12  79 CALM      30.49S
$$

SDZ017-020-022-023-036>040-048>070-271000-
SOUTHEAST SOUTH DAKOTA

CITY           SKY/WX    TMP DP  RH WIND       PRES   REMARKS
SIOUX FALLS    CLEAR     -8 -14  74 CALM      30.52F
HURON          PTCLDY   -11 -16  78 W3        30.54S
CHAMBERLAIN    CLEAR     -6  -9  86 SW3       30.51F
MITCHELL       CLEAR     -4 -10  75 SW5       30.56F WCI -15
YANKTON        CLEAR     -2  -2 100 W7        30.57F WCI -16
$$

ABBREVIATIONS USED IN REMARKS
   TC - TEMPERATURE IN CELSIUS
  WCI - WIND CHILL INDEX
   HX - HEAT INDEX
  VSB - VISIBILITY



USA.gov is the U.S. government's official web portal to all federal, state and local government web resources and services.